Weather in Tukay

Russia / Nizhny Novgorod Oblast'     55°44′43″N   45°37′43″E
temp.,
°C
wind,
m/s
gust,
m/s
humid.,
%
clouds,
%
prec.,
mm/h
press.,
hPa
HPBL,
m
9 may, sun
sun900:00+9se4995100 0.0 1010162
03:00+10sse4994100 0.0 1009163
06:00+11ese51190100 0.6 1008268
09:00+16sse71472100 0.6 1008675
12:00+16sse81278100 0.4 10081065
15:00+15sse61386100 1.5 1009801
18:00+16sse61379100 1.0 1008563
21:00+13wsw4891100 1.7 1010211
10 may, mon
mon1000:00+10w3595100 0.0 1013162
03:00+9nw1298100 1.4 1015135
06:00+9n3598100 1.3 1017198
09:00+10nnw3497100 1.7 1019225
12:00+9n6795100 0.4 1021278
15:00+12n578795 0.5 1023465
18:00+12n578991 0.0 1024378
21:00+9n51097100 0.0 1025286
11 may, tue
tue1100:00+8nne51198100 0.0 1026274
03:00+7nne4109774 0.0 1026237
06:00+9nne5109266 0.0 1027268
09:00+15ne68785 0.0 1027514
12:00+20ene566414 0.0 1027865
15:00+22e565999 0.0 10271346
18:00+19ene3773100 0.3 1027148
21:00+15ne3488100 0.7 102861
12 may, wed
wed1200:00+14ne3491100 0.0 102864
03:00+12ne369499 0.0 1028107
06:00+14ene3889100 0.0 1028220
09:00+20e586556 0.0 1027560
12:00+23ese685092 0.0 10272100
15:00+21se476174 0.0 1026502
18:00+20se24727 0.0 1026144
21:00+15ese3476100 0.0 102655
13 may, thu
thu1300:00+14ese367591 0.0 102798
03:00+13ese366989 0.0 102794
06:00+14ese397637 0.0 1027216
09:00+19se595869 0.0 1026639
12:00+22se5849100 0.0 10251282
15:00+23sse585284 0.0 10241588
18:00+18nw117896 0.1 102415
21:00+16se4117290 0.1 1024198